Regional Weather Roundup
Issued by NWS

Home | Current Version | Previous Version | Graphics & Text | Print | Product List | Glossary On
Versions: 1 2 3 4 5 6 7 8 9 10 11 12 13 14 15 16 17 18 19 20 21 22 23 24 25 26 27 28 29 30 31 32 33 34 35 36 37 38 39 40 41 42 43 44 45 46 47 48 49 50
000
ASUS43 KBIS 030520
RWRND

NORTH DAKOTA REGIONAL WEATHER ROUNDUP
NATIONAL WEATHER SERVICE BISMARCK ND
1200 AM CDT WED SEP 03 2014

NOTE: "FAIR" INDICATES FEW OR NO CLOUDS BELOW 12,000 FEET WITH NO
SIGNIFICANT WEATHER AND/OR OBSTRUCTIONS TO VISIBILITY.


NDZ001>003-009>011-017-030600-
NORTHWEST NORTH DAKOTA

CITY           SKY/WX    TMP DP  RH WIND       PRES   REMARKS
WILLISTON      CLEAR     51  46  83 CALM      29.73F
MINOT          CLEAR     54  48  80 CALM      29.75S
MINOT AFB      CLEAR     51  50  99 SW3       29.74F
$$

NDZ018>021-031>035-040>046-030600-
SOUTHWEST NORTH DAKOTA

CITY           SKY/WX    TMP DP  RH WIND       PRES   REMARKS
BISMARCK       PTCLDY    56  53  90 NE6       29.77S
DICKINSON      PTCLDY    50  45  83 S5        29.76S
GARRISON         N/A     54  51  90 CALM      29.75F
HETTINGER ARPT CLEAR     51  43  74 E3        29.79F
$$

NDZ004>008-012>016-024-026-027-054-030600-
NORTHEAST NORTH DAKOTA

CITY           SKY/WX    TMP DP  RH WIND       PRES   REMARKS
GRAND FORKS    PTCLDY    58  53  84 W3        29.72S
GRND FRKS AFB  PTCLDY    59  54  83 NW8       29.73S
DEVILS LAKE    PTCLDY    57  48  72 CALM      29.74S
$$

NDZ022-023-025-028>030-036>039-047>053-030600-
SOUTHEAST NORTH DAKOTA

CITY           SKY/WX    TMP DP  RH WIND       PRES   REMARKS
FARGO          MOCLDY    66  55  67 S8        29.75S
JAMESTOWN      CLEAR     56  52  86 CALM      29.76S
$$



USA.gov is the U.S. government's official web portal to all federal, state and local government web resources and services.